{"data":{"norad_id":59875,"epoch":"2026-05-24T12:24:37.582560Z","epoch_age_seconds":110090,"freshness":"FRESH","line1":"1 59875U 24098T   26144.51710165  .00000117  00000+0  13776-4 0  9996","line2":"2 59875  43.0008 177.4298 0001266 274.5534  85.5172 15.27579306113800","mean_motion":15.27579306,"eccentricity":0.0001266,"inclination_deg":43.0008,"raan_deg":177.4298,"arg_perigee_deg":274.5534,"mean_anomaly_deg":85.5172,"bstar":1.3776e-5,"rev_number":11380,"period_min":94.266791540314,"perigee_km":482.18254770326,"apogee_km":483.91980054895,"semimajor_km":6861.1881741261,"source":"CELESTRAK","updated_at":"2026-05-25T13:38:19.093797Z"}}